Regional Weather Roundup
Issued by NWS

Home | Current Version | Previous Version | Text Only | Print | Product List | Glossary Off
Versions: 1 2 3 4 5 6 7 8 9 10 11 12 13 14 15 16 17 18 19 20 21 22 23 24 25 26 27 28 29 30 31 32 33 34 35 36 37 38 39 40 41 42 43 44 45 46 47 48 49 50

000
ASUS45 KABQ 290410
RWRNM
WEATHER ROUNDUP FOR NEW MEXICO
NATIONAL WEATHER SERVICE ALBUQUERQUE NM
1000 PM MDT THU AUG 28 2014

NOTE: "FAIR" MEANS FEW OR NO CLOUDS BELOW 12,000 FEET AGL WITH NO
       SIGNIFICANT WEATHER OR OBSTRUCTIONS TO VISION.

      THIS PRODUCT IS RELEASED AS TWO VERSIONS.  ONE VERSION NEAR
      THE TOP OF THE HOUR CONTAINING PRELIMINARY DATA FROM ALBUQUERQUE
      AND OTHER STATIONS.  A FINAL VERSION WITH ADDITIONAL DATA IS
      ISSUED ABOUT 10 MINUTES AFTER THE HOUR.

NMZ501-503-504-510>518-290500-
NORTHWEST PLATEAU/NORTHCENTRAL MOUNTAINS

CITY           SKY/WX    TMP DP  RH WIND       PRES   REMARKS
FARMINGTON     CLEAR     69  42  37 NW7       30.16R
LOS ALAMOS     PTCLDY    65  40  40 NW5       30.27R
SANTA FE       CLEAR     60  46  59 N6        30.19R
ANGEL FIRE     MOCLDY    47  42  81 CALM      30.35S

$$
NMZ402-403-502-505>509-290500-
WESTCENTRAL MOUNTAINS/SOUTHWEST MOUNTAINS

CITY           SKY/WX    TMP DP  RH WIND       PRES   REMARKS
GALLUP         CLEAR     66  37  34 NE7       30.25R
SILVER CITY    PTCLDY    72  43  35 N9        30.15R

$$
NMZ407-409-411-412-290500-
SOUTHERN DESERTS

CITY           SKY/WX    TMP DP  RH WIND       PRES   REMARKS
LORDSBURG      FAIR      77  45  31 W8        30.05R
DEMING         CLEAR     79  42  26 W8        30.04R
LAS CRUCES     CLEAR     79  43  27 CALM      30.06R
HOLLOMAN AFB   CLEAR     74  47  39 NE6       30.02R
ALAMOGORDO     CLEAR     73  43  33 NE8       30.04R
T OR C         CLEAR     76  49  38 NW6       30.08R

$$
NMZ519>523-290500-
CENTRAL VALLEYS/CENTRAL HIGHLANDS

CITY           SKY/WX    TMP DP  RH WIND       PRES   REMARKS
ALBUQUERQUE    CLEAR     74  41  30 N7        30.14R
DOUBLE EAGLE   CLEAR     66  45  45 W8        30.18R
MORIARTY ARPT  FAIR      56  47  72 CALM      30.21R
CLINES CORNERS CLEAR     59  40  49 W7        30.24R
BELEN          FAIR      70  41  34 NW10      30.13R
SOCORRO        FAIR      71  52  50 NW5       30.11R

$$
NMZ524>526-539-540-290500-
SOUTHCENTRAL MOUNTAINS

CITY           SKY/WX    TMP DP  RH WIND       PRES   REMARKS
RUIDOSO        CLEAR     63  41  45 W9        30.26R

$$
NMZ527>531-290500-
NORTHEAST HIGHLANDS/NORTHEAST PLAINS

CITY           SKY/WX    TMP DP  RH WIND       PRES   REMARKS
LAS VEGAS      MOCLDY    56  40  55 N7        30.25R
RATON          PTCLDY    60  45  57 N14       30.22R
CLAYTON        CLEAR     63  51  65 N13       30.12R

$$
NMZ532>537-290500-
EASTCENTRAL PLAINS

CITY           SKY/WX    TMP DP  RH WIND       PRES   REMARKS
TUCUMCARI      MOCLDY    75  46  35 E8        30.04R
CANNON AFB     CLEAR     71  48  44 N8        30.01R
CLOVIS AIRPORT   N/A     68  43  40 NE8       30.04R

$$
NMZ028-029-538-290500-
SOUTHEAST PLAINS

CITY           SKY/WX    TMP DP  RH WIND       PRES   REMARKS
ROSWELL        CLEAR     77  47  34 NW8       29.98R
CARLSBAD       CLEAR     81  43  26 W9        29.94R
HOBBS          PTCLDY    81  50  34 E3        29.98R


$$



USA.gov is the U.S. government's official web portal to all federal, state and local government web resources and services.